Theta_e
309 309 309 309 309 309 309 309 310 311 312 311 311 311 311 311 311 310 311 315 314 312 314 314 315 316 316 315 314 308 309 310 314 314 314 312 313 312 309 312 311 312 312 311 314
309 309 309 310 310 310 310 311 313 314 314 313 314 313 313 313 312 314 315 314 313 313 314 314 314 315 311 316 314 309 307 310 311 313 315 314 313 312 312 311 311 311 309 312 313
309 309 310 310 310 311 312 313 316 317 317 316 316 315 314 312 313 313 315 314 313 313 315 315 315 314 315 315 316 313 311 311 315 313 314 314 313 312 313 312 310 310 309 308 311
308 309 310 311 312 314 315 316 318 320 320 319 318 316 314 312 317 313 313 310 310 313 315 315 313 314 313 315 314 317 315 314 315 314 313 314 313 313 313 312 311 308 306 306 302
311 311 312 313 314 317 318 319 321 321 320 319 319 315 312 313 312 315 312 310 311 314 314 313 313 313 314 313 312 315 314 313 313 311 310 311 312 312 310 309 307 306 304 303 302
314 314 314 314 316 318 320 321 321 322 321 319 317 312 313 312 315 315 313 311 312 314 313 313 311 311 313 313 312 311 312 311 310 310 310 311 310 310 311 309 306 304 303 301 300
315 315 314 315 317 320 321 322 322 322 320 317 312 311 315 311 314 316 315 312 312 313 313 313 313 313 312 312 311 312 312 309 309 310 310 308 312 311 310 307 305 303 301 300 299
316 315 315 316 318 321 322 322 322 321 319 313 309 314 310 311 314 315 315 314 314 314 314 313 313 312 313 311 309 311 310 310 310 311 311 311 313 312 309 306 306 301 299 300 299
316 316 315 317 319 321 322 321 321 319 315 313 315 314 312 309 312 313 313 312 312 312 312 313 312 310 310 308 307 308 309 310 311 311 311 311 312 310 308 308 303 300 300 299 298
317 316 316 317 319 322 322 321 318 316 314 314 315 313 311 309 310 310 311 312 310 309 310 310 306 308 306 306 311 309 310 309 310 312 311 312 310 309 308 308 302 300 299 298 298
317 317 316 318 320 322 322 319 316 317 317 315 312 312 310 309 309 309 311 311 310 308 308 309 307 307 308 308 308 309 309 311 310 310 312 311 310 309 307 302 301 300 299 298 298
317 316 317 318 321 322 321 317 316 315 318 315 314 311 311 310 311 309 310 310 310 310 309 309 308 307 307 307 309 309 311 311 310 309 310 310 310 308 304 303 301 300 299 298 297
317 316 317 320 321 322 321 318 317 315 317 317 314 316 313 311 314 312 308 308 310 309 309 310 312 310 310 310 311 311 311 311 312 310 309 309 310 310 304 302 301 299 298 297 295
317 317 318 319 322 322 318 321 317 315 318 318 316 312 309 312 315 307 308 309 309 310 309 310 310 312 311 312 311 315 310 311 312 311 314 308 312 307 306 304 301 299 296 295 294
317 317 319 319 320 317 319 318 317 313 325 316 312 308 307 314 308 307 306 309 311 311 310 314 312 311 312 312 311 314 309 310 310 309 308 308 309 306 305 306 302 298 297 295 294
318 318 319 320 321 320 317 317 315 321 325 314 308 308 309 306 307 306 307 307 308 311 309 311 308 309 311 308 309 308 308 308 306 306 311 309 310 310 309 307 302 299 296 295 294
319 319 320 321 321 321 316 315 323 327 318 315 310 307 308 307 307 307 308 308 310 314 313 311 310 309 308 309 308 308 310 313 312 311 315 309 310 309 305 303 303 299 296 294 293
320 320 320 321 322 322 314 321 325 323 320 311 309 308 309 307 307 307 307 309 305 308 309 312 316 309 307 309 309 307 310 313 310 311 311 309 313 310 302 299 299 297 295 294 293
320 320 321 321 321 319 320 326 324 322 318 312 312 311 311 310 309 307 306 307 307 306 315 312 314 308 307 308 309 309 311 308 310 294 306 311 309 305 301 300 298 297 295 294 293
319 320 320 320 321 315 323 326 323 320 318 312 315 314 314 316 312 308 307 308 312 306 309 311 315 310 309 308 307 309 307 312 308 308 310 310 310 309 304 301 299 298 297 296 294
314 317 314 318 317 319 325 325 321 318 314 316 316 318 316 317 314 309 312 312 309 309 310 311 312 312 311 311 310 309 310 309 309 307 305 304 306 304 305 302 300 299 297 296 295
312 319 312 314 319 318 324 320 317 314 313 314 313 315 315 313 316 313 313 312 307 310 313 312 311 310 311 307 305 307 308 309 312 309 306 307 310 304 303 301 299 299 298 295 294
312 310 309 311 321 316 314 316 314 313 315 316 316 313 312 312 315 311 310 308 307 310 311 310 309 304 308 306 308 308 307 306 306 303 301 308 308 303 301 300 299 299 297 295 293
308 312 309 310 311 314 316 316 317 313 314 314 315 312 312 313 312 310 310 309 308 310 310 310 307 309 315 307 307 307 306 305 304 307 305 308 308 305 303 301 299 298 297 296 294
308 310 309 310 311 313 315 315 316 315 313 313 313 315 315 313 312 311 309 309 307 309 308 308 306 306 305 304 305 305 305 304 304 305 308 307 307 304 302 301 298 295 293 295 293
304 306 303 309 311 312 313 315 316 316 313 313 315 314 313 314 312 311 309 308 308 306 306 303 305 302 300 305 306 307 305 304 305 304 303 303 303 300 297 294 293 292 293 295 295
297 298 301 307 311 313 313 314 314 314 311 310 312 311 313 312 306 302 303 303 306 305 304 303 302 303 309 297 297 300 298 302 302 300 301 301 301 290 293 293 292 291 290 291 292
Wind_Speed
3 3 3 3 4 4 5 5 6 7 8 9 10 11 13 15 15 11 4 1 1 3 4 5 3 3 3 3 4 3 4 1 3 2 2 4 6 1 3 2 3 2 1 4 9
5 5 5 5 5 5 6 6 7 9 9 10 11 12 13 15 15 7 2 3 2 3 5 4 2 3 3 2 3 4 4 7 3 2 2 4 1 4 4 7 2 2 7 6 10
8 7 7 6 6 6 6 6 8 9 10 11 11 11 11 12 5 2 0 4 4 7 4 4 4 3 2 2 1 2 4 5 4 4 1 2 3 2 3 3 7 7 8 8 7
9 9 9 8 6 6 6 7 9 11 12 12 12 11 8 5 3 0 2 3 7 10 6 4 3 3 2 1 1 0 4 3 2 3 1 3 3 5 4 9 0 7 6 5 9
11 10 9 8 7 6 6 7 9 12 13 13 11 9 3 1 6 1 1 4 8 10 5 4 4 4 3 2 0 2 3 3 6 6 5 1 6 5 9 12 6 6 10 10 10
12 11 10 9 7 6 7 8 10 12 14 12 10 5 1 3 2 1 2 5 6 8 4 4 5 5 3 2 3 3 3 6 7 8 3 4 3 3 6 3 9 9 9 9 12
13 13 11 10 8 7 8 9 11 12 13 11 8 2 1 9 3 2 3 4 5 5 3 3 3 3 3 0 2 1 5 8 6 2 5 6 0 7 8 7 8 8 8 8 12
15 14 13 10 9 8 9 11 12 13 10 8 1 2 6 3 4 4 4 5 5 4 4 3 3 4 1 1 6 3 3 4 4 2 1 3 7 6 6 7 5 8 8 9 12
17 15 13 11 10 9 10 12 13 11 4 1 0 2 7 2 3 5 5 5 7 6 4 4 3 3 4 4 4 5 3 4 8 2 2 3 5 7 4 7 7 7 7 8 9
17 16 14 12 10 10 10 11 9 4 2 2 0 2 2 4 4 6 6 9 3 5 4 5 5 3 3 4 5 6 4 5 5 0 3 3 8 12 8 4 8 8 7 8 10
19 18 15 13 10 9 8 5 2 2 3 8 5 3 3 4 6 3 5 7 4 4 5 1 4 7 13 11 3 2 4 4 3 5 1 6 5 12 8 9 8 7 7 8 8
21 19 17 13 10 8 7 3 3 1 6 11 5 5 3 6 3 3 9 5 4 5 5 4 7 13 4 5 5 2 2 5 6 4 3 6 10 3 7 5 5 8 7 7 5
22 20 17 12 9 10 10 7 3 1 1 6 5 4 4 9 5 7 10 4 4 6 8 8 6 5 7 4 5 4 5 5 8 3 1 3 6 2 5 8 10 8 6 6 6
23 21 18 13 6 9 6 14 7 4 2 6 5 4 3 6 3 1 8 5 3 11 6 5 4 4 4 5 7 4 8 7 3 3 4 1 5 6 5 5 5 5 6 6 6
26 24 21 22 4 6 3 13 10 2 5 3 3 2 2 5 6 1 1 2 6 6 7 7 5 4 5 8 6 7 4 4 2 2 3 4 1 6 6 3 5 5 5 6 5
30 27 25 23 22 5 11 15 6 3 10 5 5 6 5 2 2 3 2 3 2 3 1 6 2 4 6 3 6 5 4 6 4 3 1 7 7 4 5 3 6 5 6 6 6
33 31 32 26 12 22 19 7 2 7 0 6 5 6 5 6 4 5 6 6 6 5 6 1 4 2 2 5 3 4 5 2 4 2 5 3 1 7 4 5 10 12 9 8 7
37 34 37 36 24 24 18 3 9 7 8 4 6 5 8 8 5 6 7 5 6 3 4 7 3 8 4 6 6 6 7 5 7 3 4 2 6 5 1 4 9 11 9 7 8
40 39 32 39 38 33 7 10 11 8 6 9 4 5 5 6 6 5 8 6 9 12 7 6 4 2 3 2 5 5 5 3 5 2 3 4 4 2 3 4 4 6 7 9 8
36 27 24 29 45 27 12 21 10 6 8 5 12 8 11 8 8 8 10 5 5 9 1 5 2 1 1 2 3 4 6 4 2 2 5 4 5 5 7 10 7 7 9 8 8
11 3 9 32 38 7 12 10 6 5 5 8 10 7 7 8 9 7 7 1 5 6 6 5 4 2 3 5 8 2 2 3 3 5 6 2 6 5 11 13 14 11 9 9 8
6 3 14 35 9 2 13 7 5 7 3 3 4 4 9 8 7 7 11 7 8 9 9 5 4 4 8 1 1 3 7 7 5 6 3 1 12 5 6 11 11 10 10 7 6
4 1 1 3 8 3 3 3 2 4 5 5 3 4 2 7 5 7 6 2 6 8 10 8 1 2 6 4 2 4 4 4 4 4 7 6 6 3 4 7 8 8 7 7 9
4 2 1 1 1 6 7 5 5 2 2 3 5 3 4 4 3 7 6 2 2 2 5 3 5 8 13 6 5 5 5 5 5 3 4 12 5 2 4 7 6 7 6 8 8
2 4 5 5 5 6 11 8 12 8 5 7 4 10 10 6 5 6 4 3 4 4 3 4 5 2 1 4 4 3 5 9 8 7 11 8 12 6 10 9 8 8 7 7 7
2 3 0 3 13 15 11 12 15 14 9 5 9 14 11 7 7 8 8 4 5 2 5 1 2 3 2 2 1 5 7 9 10 7 8 9 17 7 5 6 5 7 7 7 8
3 1 3 3 10 13 13 18 17 16 5 3 14 6 15 15 3 3 3 5 6 9 7 6 6 4 7 2 3 8 12 15 10 6 8 11 17 2 6 7 7 8 8 8 7
Wind_Direction
262 275 293 304 309 317 320 323 332 331 327 325 328 327 327 324 324 316 279 246 54 172 162 145 102 56 46 61 57 111 60 176 243 148 275 329 12 271 311 247 1 273 188 293 318
259 268 278 287 294 301 307 317 330 331 327 328 327 324 326 327 326 294 219 184 150 166 153 135 76 44 34 32 25 85 113 216 223 179 273 311 336 338 7 332 295 317 308 309 323
257 263 269 275 284 296 306 318 325 331 327 324 323 321 322 330 342 282 168 203 196 170 144 113 81 66 54 27 303 153 186 197 247 213 184 273 284 175 294 287 238 284 316 320 329
255 263 269 274 283 295 302 313 320 327 326 323 320 318 316 336 303 9 213 176 169 164 139 134 64 94 107 215 226 318 253 231 275 156 344 255 292 309 224 252 13 1 306 356 38
253 257 262 265 270 285 296 307 319 324 324 320 316 316 316 15 254 296 152 175 173 176 165 136 138 141 176 199 146 193 281 294 272 281 240 319 253 235 261 258 37 55 45 40 41
257 258 260 263 268 281 294 304 313 321 323 317 314 309 134 235 226 217 203 184 186 178 164 147 180 191 158 206 171 188 271 278 282 270 259 228 256 138 277 20 56 65 56 43 38
258 260 260 261 264 273 290 301 308 314 316 315 312 215 155 243 228 185 170 171 174 184 137 167 182 120 125 302 331 324 324 328 266 268 214 156 80 228 248 27 50 64 58 49 40
254 254 256 255 259 270 283 294 302 307 311 325 306 154 242 246 206 203 168 140 148 145 126 120 142 105 97 105 18 22 47 347 292 165 38 138 266 277 300 74 65 88 60 46 32
249 249 250 250 256 269 283 297 302 297 274 297 3 137 267 184 193 194 183 152 131 121 112 120 93 91 40 89 6 4 236 218 314 341 89 133 276 266 334 38 83 83 66 55 36
246 246 242 243 250 267 288 302 302 281 230 214 173 4 219 220 162 162 161 147 115 101 48 57 56 83 51 104 225 206 215 239 233 221 40 293 261 275 303 117 112 98 74 61 49
243 243 238 236 242 267 292 303 308 294 205 195 194 231 129 127 135 143 150 119 93 64 153 44 118 205 203 200 198 165 187 227 267 261 317 255 248 274 320 79 104 98 85 71 53
240 237 231 230 235 258 273 222 224 145 300 234 227 270 194 171 119 203 165 143 151 175 115 59 219 230 135 179 205 218 244 260 274 266 164 280 275 11 32 45 103 106 88 78 67
234 228 224 223 238 254 233 229 228 167 255 286 200 185 194 166 212 205 156 149 158 148 192 177 213 156 169 166 161 210 189 222 221 353 269 325 289 166 50 82 80 71 81 72 70
228 221 214 209 241 219 218 228 204 177 282 256 216 236 125 135 237 119 182 148 189 195 171 237 256 182 168 199 148 224 208 205 203 127 225 79 275 301 139 113 85 107 104 106 91
224 217 205 202 189 181 214 180 171 131 283 206 170 127 146 167 132 325 131 56 169 177 136 235 181 175 187 214 157 236 117 154 118 131 57 301 295 259 124 180 177 161 145 134 123
222 215 202 212 231 204 169 157 142 95 243 194 137 160 136 168 146 121 120 54 144 144 215 235 263 183 206 83 150 137 88 53 57 112 293 223 184 266 187 191 162 173 161 154 148
222 214 204 208 212 212 166 142 163 210 18 190 183 165 177 167 178 159 165 171 159 138 216 234 219 195 165 94 77 98 80 327 333 358 230 137 144 247 301 315 185 163 172 177 168
224 215 211 212 201 194 168 163 214 196 199 117 138 117 177 159 214 173 141 190 236 191 127 166 252 167 190 190 175 176 157 167 224 211 255 43 234 253 309 343 133 156 163 162 177
225 218 210 212 208 193 182 210 214 170 190 144 98 140 219 207 161 152 193 199 201 186 174 151 264 127 170 146 148 187 170 165 93 57 45 233 296 266 74 44 100 152 173 194 191
212 210 213 201 203 184 206 210 217 187 147 155 178 176 181 191 161 185 178 204 199 188 50 197 134 159 136 111 25 159 167 90 42 282 255 256 264 223 206 197 191 202 219 213 201
185 190 185 192 184 196 207 219 192 223 178 168 188 165 201 173 179 192 195 242 185 158 136 145 124 226 115 199 185 141 190 68 132 154 191 254 253 212 196 181 187 200 214 221 216
158 213 157 158 185 204 220 182 180 173 149 171 139 153 175 174 170 203 199 211 176 147 159 192 136 168 196 230 338 284 196 166 190 240 258 164 259 8 163 178 174 191 211 218 218
125 106 276 216 198 185 143 185 198 155 168 150 188 215 167 163 177 189 190 355 168 154 160 180 189 53 345 7 22 225 206 151 102 74 202 192 259 17 93 147 189 190 212 220 212
121 134 289 226 101 176 197 202 194 261 219 146 161 99 117 188 234 175 173 57 46 58 28 136 160 178 230 190 134 178 197 180 149 171 178 234 265 202 193 190 197 230 250 237 221
155 173 180 183 218 205 185 190 198 194 211 178 188 201 185 195 179 171 134 118 47 66 90 143 219 120 219 158 144 212 197 182 192 212 213 230 225 185 202 210 220 235 246 253 215
160 148 280 187 196 191 191 194 203 196 171 199 218 197 207 196 195 187 132 162 189 107 151 125 162 89 313 295 15 264 226 199 231 234 250 265 270 248 172 212 201 211 214 214 223
17 118 85 178 183 184 200 208 210 193 193 159 213 191 213 215 205 67 105 122 150 157 167 149 133 126 238 66 66 284 224 213 219 199 210 227 246 141 222 198 217 220 200 207 208